| time (UTC) | temp C | wind direction | speed KPH | gust KPH | rain 1hr cm | rain 24hr cm | rain mn cm | humidity % | barometer mb |
| 20260506091517 | 12 | 352 | 11.3 | 19.3 | 0.00 | 0.00 | 0.00 | 83 | 1011.3 |
| 20260506090013 | 12 | 5 | 12.9 | 19.3 | 0.00 | 0.00 | 0.00 | 83 | 1011.1 |
| 20260506084511 | 12 | 360 | 8.0 | 16.1 | 0.00 | 0.00 | 0.00 | 84 | 1011.1 |
| 20260506083012 | 12 | 9 | 9.7 | 17.7 | 0.00 | 0.00 | 0.00 | 84 | 1011.2 |
| 20260506081518 | 12 | 20 | 6.4 | 14.5 | 0.00 | 0.00 | 0.00 | 85 | 1011.3 |
| 20260506073011 | 12 | 5 | 6.4 | 16.1 | 0.00 | 0.00 | 0.00 | 84 | 1010.9 |
| 20260506071514 | 12 | 20 | 9.7 | 16.1 | 0.00 | 0.00 | 0.00 | 83 | 1010.9 |
| 20260506061512 | 13 | 5 | 4.8 | 9.7 | 0.00 | 0.00 | 0.00 | 81 | 1010.1 |
| 20260506044521 | 16 | 352 | 6.4 | 20.9 | 0.00 | 0.00 | 0.00 | 76 | 1010.7 |
| 20260506043023 | 16 | 33 | 9.7 | 22.5 | 0.00 | 0.00 | 0.00 | 75 | 1010.2 |
| 20260506041522 | 17 | 40 | 9.7 | 19.3 | 0.00 | 0.00 | 0.00 | 73 | 1010.1 |
| 20260506040019 | 18 | 53 | 8.0 | 17.7 | 0.00 | 0.00 | 0.00 | 72 | 1010.1 |
| 20260506034520 | 18 | 344 | 6.4 | 17.7 | 0.00 | 0.00 | 0.00 | 72 | 1009.8 |
| 20260506033023 | 18 | 24 | 6.4 | 16.1 | 0.00 | 0.00 | 0.00 | 69 | 1009.9 |
| 20260506031510 | 18 | 352 | 8.0 | 16.1 | 0.00 | 0.00 | 0.00 | 68 | 1009.7 |
| 20260506030015 | 19 | 350 | 6.4 | 14.5 | 0.00 | 0.00 | 0.00 | 68 | 1009.4 |
| 20260506024520 | 19 | 15 | 9.7 | 17.7 | 0.00 | 0.00 | 0.00 | 67 | 1009.0 |
| 20260506023024 | 20 | 32 | 9.7 | 17.7 | 0.00 | 0.00 | 0.00 | 66 | 1008.5 |
| 20260506021506 | 20 | 34 | 3.2 | 16.1 | 0.00 | 0.00 | 0.00 | 66 | 1007.9 |
| 20260506020013 | 20 | 352 | 9.7 | 16.1 | 0.00 | 0.00 | 0.00 | 64 | 1007.8 |
| 20260506014517 | 21 | 30 | 11.3 | 24.1 | 0.00 | 0.00 | 0.00 | 63 | 1007.3 |
| 20260506013021 | 21 | 5 | 19.3 | 24.1 | 0.00 | 0.00 | 0.00 | 63 | 1007.2 |
| 20260506011530 | 22 | 352 | 12.9 | 22.5 | 0.00 | 0.00 | 0.00 | 63 | 1006.8 |
| 20260506010009 | 23 | 49 | 8.0 | 22.5 | 0.00 | 0.00 | 0.00 | 61 | 1006.0 |
| 20260506004523 | 24 | 13 | 9.7 | 25.7 | 0.00 | 0.00 | 0.00 | 60 | 1006.0 |
| 20260506003022 | 25 | 9 | 11.3 | 19.3 | 0.00 | 0.00 | 0.00 | 59 | 1005.9 |
| 20260506001524 | 25 | 51 | 6.4 | 25.7 | 0.00 | 0.00 | 0.00 | 58 | 1005.7 |
| 20260506000009 | 26 | 11 | 12.9 | 24.1 | 0.00 | 0.00 | 0.00 | 56 | 1005.6 |
| 20260505234513 | 30 | 14 | 8.0 | 22.5 | 0.00 | 0.00 | 0.00 | 49 | 1005.7 |
| 20260505233021 | 31 | 192 | 3.2 | 8.0 | 0.00 | 0.00 | 0.00 | 50 | 1005.3 |
| 20260505231529 | 30 | 182 | 6.4 | 12.9 | 0.00 | 0.00 | 0.00 | 51 | 1005.2 |
| 20260505230040 | 30 | 196 | 9.7 | 16.1 | 0.00 | 0.00 | 0.00 | 49 | 1004.9 |
| 20260505224510 | 31 | 199 | 9.7 | 22.5 | 0.00 | 0.00 | 0.00 | 49 | 1004.7 |
| 20260505223017 | 31 | 186 | 11.3 | 20.9 | 0.00 | 0.00 | 0.00 | 48 | 1004.7 |
| 20260505221523 | 31 | 160 | 6.4 | 14.5 | 0.00 | 0.00 | 0.00 | 50 | 1004.8 |
| 20260505220024 | 31 | 175 | 9.7 | 14.5 | 0.00 | 0.00 | 0.00 | 51 | 1005.0 |
| 20260505214528 | 31 | 211 | 9.7 | 16.1 | 0.00 | 0.00 | 0.00 | 51 | 1005.1 |
| 20260505213019 | 31 | 178 | 8.0 | 14.5 | 0.00 | 0.00 | 0.00 | 53 | 1005.1 |
| 20260505211530 | 31 | 188 | 9.7 | 16.1 | 0.00 | 0.00 | 0.00 | 52 | 1005.0 |
| 20260505210024 | 31 | 171 | 14.5 | 19.3 | 0.00 | 0.00 | 0.00 | 49 | 1005.2 |
| 20260505204528 | 31 | 159 | 6.4 | 16.1 | 0.00 | 0.00 | 0.00 | 47 | 1005.5 |
| 20260505203017 | 31 | 265 | 9.7 | 20.9 | 0.00 | 0.00 | 0.00 | 43 | 1005.4 |
| 20260505201520 | 31 | 209 | 9.7 | 19.3 | 0.00 | 0.00 | 0.00 | 42 | 1005.9 |
| 20260505200026 | 31 | 233 | 8.0 | 16.1 | 0.00 | 0.00 | 0.00 | 47 | 1006.2 |
| 20260505194524 | 31 | 229 | 4.8 | 17.7 | 0.00 | 0.00 | 0.00 | 51 | 1006.1 |
| 20260505193028 | 30 | 242 | 11.3 | 19.3 | 0.00 | 0.00 | 0.00 | 51 | 1006.4 |
| 20260505191520 | 30 | 271 | 14.5 | 19.3 | 0.00 | 0.00 | 0.00 | 48 | 1006.4 |
| 20260505190022 | 30 | 252 | 12.9 | 19.3 | 0.00 | 0.00 | 0.00 | 52 | 1006.6 |
| 20260505184535 | 30 | 237 | 11.3 | 24.1 | 0.00 | 0.00 | 0.00 | 56 | 1006.8 |
| 20260505183027 | 28 | 219 | 12.9 | 25.7 | 0.00 | 0.00 | 0.00 | 57 | 1006.9 |
| 20260505181514 | 28 | 237 | 11.3 | 20.9 | 0.00 | 0.00 | 0.00 | 60 | 1007.1 |
| 20260505180004 | 28 | 261 | 14.5 | 25.7 | 0.00 | 0.00 | 0.00 | 58 | 1007.1 |
| 20260505174507 | 28 | 203 | 8.0 | 25.7 | 0.00 | 0.00 | 0.00 | 62 | 1007.0 |
| 20260505173007 | 28 | 217 | 12.9 | 29.0 | 0.00 | 0.00 | 0.00 | 61 | 1007.1 |
| 20260505171522 | 27 | 263 | 11.3 | 24.1 | 0.00 | 0.00 | 0.00 | 64 | 1007.2 |
| 20260505170020 | 26 | 231 | 12.9 | 19.3 | 0.00 | 0.00 | 0.00 | 65 | 1007.1 |
| 20260505164505 | 26 | 241 | 11.3 | 22.5 | 0.00 | 0.00 | 0.00 | 68 | 1007.2 |
| 20260505163010 | 26 | 202 | 12.9 | 24.1 | 0.00 | 0.00 | 0.00 | 68 | 1007.2 |
| 20260505161511 | 25 | 200 | 11.3 | 19.3 | 0.00 | 0.00 | 0.00 | 69 | 1007.2 |
| 20260505153012 | 24 | 210 | 12.9 | 27.4 | 0.00 | 0.00 | 0.00 | 72 | 1007.0 |
| 20260505151512 | 24 | 213 | 11.3 | 19.3 | 0.00 | 0.00 | 0.00 | 73 | 1006.9 |
| 20260505124519 | 18 | 164 | 6.4 | 16.1 | 0.00 | 0.00 | 0.00 | 88 | 1005.9 |
| 20260505123030 | 18 | 193 | 8.0 | 14.5 | 0.00 | 0.00 | 0.00 | 88 | 1006.0 |
| 20260505121508 | 18 | 182 | 8.0 | 14.5 | 0.00 | 0.00 | 0.00 | 88 | 1005.8 |
| 20260505120014 | 18 | 189 | 8.0 | 11.3 | 0.00 | 0.00 | 0.00 | 88 | 1005.9 |
| 20260505114521 | 18 | 360 | 8.0 | 12.9 | 0.00 | 0.00 | 0.00 | 87 | 1005.6 |
| 20260505113022 | 18 | 185 | 9.7 | 19.3 | 0.00 | 0.00 | 0.00 | 87 | 1005.6 |
| 20260505111532 | 18 | 184 | 11.3 | 17.7 | 0.00 | 0.00 | 0.00 | 87 | 1005.5 |
| 20260505101524 | 19 | 190 | 8.0 | 16.1 | 0.00 | 0.00 | 0.00 | 84 | 1005.5 |
| 20260505100032 | 19 | 197 | 11.3 | 17.7 | 0.00 | 0.00 | 0.00 | 84 | 1005.5 |
| 20260505094511 | 19 | 191 | 12.9 | 24.1 | 0.00 | 0.00 | 0.00 | 84 | 1005.5 |
| 20260505093020 | 20 | 205 | 12.9 | 17.7 | 0.00 | 0.00 | 0.00 | 83 | 1005.7 |